Location: Hauterive
(46.7644°N, 7.1175°E)
Time: 20:05:38
(UTC+00:00)

Daily predictions for brighter satellites

Satellite Brightness Start Highest point End
(mag) Time Altitude Azimuth Time Altitude Azimuth Time Altitude Azimuth
CZ-2C R/B 4.3 19:18:58 10° N 19:23:57 41° WNW 19:29:01 10° SW
SL-08 ROCKET BODY 4.4 19:19:03 10° N 19:24:57 64° ENE 19:30:44 10° SSE
Cosmos 1408 Rocket 4.1 19:20:38 10° NNW 19:25:00 64° W 19:29:21 10° S
USA 290 3.8 19:24:39 10° N 19:27:16 22° ENE 19:29:52 10° ESE
Cosmos 921 Rocket 4.1 19:24:14 10° NNW 19:28:20 44° WSW 19:32:20 10° S
Cosmos 1842 Rocket 3.9 19:24:40 10° SSW 19:29:08 76° W 19:33:40 10° N
CREW DRAGON DEMO-1 DEB 4.4 19:26:57 10° WNW 19:29:19 28° N 19:31:42 10° NE
Ariane Rocket 3.0 19:24:32 10° SSE 19:29:33 74° ENE 19:34:38 10° N
Meteor 2-2 Rocket 4.5 19:25:46 10° SSW 19:31:25 78° WNW 19:37:06 10° N
Cosmos 2263 Rocket 3.7 19:26:54 10° SW 19:32:09 42° NW 19:37:28 10° NNE
FALCON 9 DEB 3.4 19:29:40 10° WNW 19:32:39 49° SW 19:35:37 10° SE
Cosmos 1606 2.6 19:31:17 10° S 19:35:01 66° E 19:38:47 10° NNE
Cosmos 1844 Rocket 2.8 19:31:32 10° S 19:36:55 54° ESE 19:42:21 10° NE
SL-4 R/B 2.5 19:36:56 10° WNW 19:41:13 59° SSW 19:45:35 11° SE
Cosmos 1805 Rocket 3.7 19:38:26 10° N 19:42:45 59° ENE 19:47:03 10° SSE
X-37B 0.6 19:41:35 10° W 19:44:46 64° S 19:47:53 10° E
ARIANE 5 R/B 4.1 19:43:07 10° ESE 19:46:24 22° ENE 19:49:42 10° NNE
Cosmos 1633 Rocket 4.1 19:47:16 10° NNE 19:51:08 29° ENE 19:54:17 14° SE
Cosmos 1745 Rocket 4.0 19:45:32 10° N 19:51:45 71° E 19:57:53 10° SSE
ERS-2 4.3 19:51:06 10° N 19:54:19 30° WNW 19:57:30 10° SW
SPOT 3 Rocket 3.6 19:49:16 10° SSE 19:54:22 65° ENE 19:59:28 10° N
Cosmos 1709 Rocket 4.4 19:48:40 10° N 19:54:31 44° ENE 19:59:46 13° SE
Resurs 1-3 3.9 19:52:12 10° S 19:56:33 68° WSW 20:00:57 10° NNW
Cosmos 1743 Rocket 4.2 19:52:35 10° NNW 19:56:50 54° W 20:01:04 10° S
Cosmos 1844 3.7 19:51:28 10° SSW 19:57:07 63° ESE 20:02:44 10° NNE
Landsat 7 4.0 19:52:36 11° SSE 19:57:08 58° ENE 20:01:50 10° N
Cosmos 968 Rocket 3.5 19:52:40 10° SSW 19:57:55 89° W 20:03:11 10° NNE
BREEZE-M DEB (TANK) 4.0 19:54:28 10° W 19:58:43 71° SSW 20:06:54 10° ESE
ATLAS 5 CENTAUR R/B 2.6 19:54:49 10° NW 20:00:15 62° NE 20:05:41 15° SE
BREEZE M DEB (TANK) 4.2 20:00:39 10° WSW 20:04:32 82° NNW 20:17:59 10° ENE
Cosmos 1486 Rocket 4.0 20:00:07 10° SSW 20:05:27 86° ESE 20:10:49 10° NNE
Intercosmos 25 Rocket 4.4 19:59:22 10° NNW 20:06:13 68° W 20:10:25 10° S
IGS 5A 3.4 20:04:31 12° SSE 20:08:21 83° ENE 20:12:31 10° NNW
Cosmos 1833 Rocket 3.9 20:04:56 10° N 20:09:52 30° NE 20:14:00 13° ESE
Cosmos 2315 Rocket 4.3 20:04:57 10° SSE 20:11:00 48° E 20:17:06 10° NNE
S3M 4.0 20:05:18 10° S 20:11:41 87° E 20:18:04 10° N
BREEZE-M R/B 1.6 20:10:18 10° WSW 20:12:53 63° SSE 20:15:12 11° ENE
Cosmos 1666 Rocket 3.6 20:12:28 10° N 20:16:52 62° E 20:19:58 18° SSE
Meteor 2-17 Rocket 4.5 20:13:45 10° N 20:19:56 72° E 20:25:05 15° SSE
Cosmos 1933 3.3 20:18:03 10° S 20:22:06 88° W 20:26:10 10° N
USA 245 2.4 20:23:48 39° ESE 20:24:12 44° ENE 20:26:22 10° N
USA 305 4.3 20:20:24 10° NW 20:24:20 34° NNE 20:28:15 10° ENE
Cosmos 1242 Rocket 2.4 20:24:04 10° S 20:27:40 90° WNW 20:31:15 10° N
OBJECT-B 3.8 20:26:32 10° WSW 20:27:47 12° W 20:29:02 10° WNW
Cosmos 1437 Rocket 4.3 20:28:07 10° SW 20:31:43 37° WNW 20:35:25 10° N
BREEZE M DEB (TANK) 2.5 20:27:36 10° WNW 20:32:39 56° N 20:34:07 21° ENE
Cosmos 773 Rocket 4.2 20:28:38 10° NNW 20:33:54 60° ENE 20:37:01 24° SE
Resurs 01 Rocket 2.5 20:29:42 10° S 20:33:57 47° W 20:38:17 10° NNW
Spot 2 Rocket 3.5 20:34:12 22° SSE 20:37:29 73° ENE 20:42:32 10° N
OE (NEXTSAT) 4.2 20:34:55 10° W 20:38:23 79° S 20:39:58 30° ESE
SJ 16-02 2.8 20:38:19 20° E 20:38:26 20° E 20:41:38 10° NE
Sich 1 3.9 20:34:57 10° NNW 20:39:06 46° W 20:43:00 11° SSW
DELTA 2 R/B (1) 4.5 20:34:47 10° WSW 20:39:40 32° SSW 20:41:51 24° SSE
COSMOS 2406 3.8 20:35:01 10° NNW 20:40:28 47° NE 20:43:43 23° ESE
Cosmos 2082 Rocket 3.5 20:38:15 10° N 20:43:05 28° NE 20:46:29 16° E
USA 306 4.1 20:39:33 10° NW 20:43:34 38° NNE 20:47:01 13° E
CZ-4C R/B 3.2 20:38:35 10° NW 20:45:39 65° NE 20:51:18 22° ESE
Cosmos 1500 3.2 20:42:08 10° N 20:45:52 62° ENE 20:47:10 36° SE
Cosmos 1782 2.8 20:43:16 18° S 20:46:11 87° W 20:50:12 10° N
ERS-1 Rocket 3.0 20:50:52 29° SSE 20:53:25 67° ENE 20:58:25 10° N
SPOT 5 3.0 20:52:52 29° SSE 20:55:24 69° ENE 21:00:37 10° N
Cosmos 1503 Rocket 4.5 20:51:13 10° SW 20:56:19 62° WNW 21:01:30 10° NNE
H-2A R/B 4.1 20:53:22 10° NNE 20:57:15 35° E 20:57:49 34° ESE
Cosmos 1271 Rocket 3.7 21:00:22 31° E 21:00:33 31° E 21:04:06 10° NNE
USA 290 4.2 20:59:00 10° NW 21:01:37 23° WSW 21:02:58 18° SW
Cosmos 1151 Rocket 3.5 20:58:02 14° SSW 21:01:39 61° W 21:06:00 10° N
Cosmos 1777 Rocket 4.0 20:58:39 23° S 21:01:50 63° ESE 21:07:00 10° NNE
CREW DRAGON DEMO-1 DEB 3.9 21:01:39 10° NW 21:04:07 33° NNE 21:04:38 30° NE
Terra 2.0 21:02:22 34° SE 21:04:13 58° ENE 21:08:54 10° N
Cosmos 2278 Rocket 2.3 21:05:44 29° S 21:08:24 52° ESE 21:13:53 10° NE
USA 307 3.8 21:04:53 10° NW 21:09:01 45° NNE 21:11:26 22° E
CZ-4B DEB 4.2 21:16:06 68° E 21:16:07 68° ENE 21:19:20 10° N
Cosmos 1515 Rocket 3.5 21:17:35 37° S 21:19:21 87° W 21:23:46 10° N
SL-4 R/B 4.4 21:17:58 10° W 21:20:16 14° SW 21:21:08 13° SW
X-37B 2.0 21:18:12 10° W 21:20:09 28° WSW 21:20:09 28° WSW
Cosmos 2084 3.3 21:17:53 15° SW 21:21:17 90° SE 21:25:34 10° NE
USA 308 3.6 21:18:21 10° NW 21:22:33 51° NNE 21:24:24 29° E
ARIANE 5 R/B 3.5 21:20:39 26° SSW 21:22:36 43° W 21:26:45 10° NNW
Cosmos 1869 Rocket 4.1 21:19:09 10° N 21:23:16 41° ENE 21:23:54 39° E
Cosmos 1536 3.7 21:19:45 10° N 21:23:30 34° ENE 21:23:48 34° E
Meteor 1-10 Rocket 4.1 21:22:59 36° S 21:25:15 69° E 21:30:52 10° NNE
Cosmos 1437 4.0 21:25:46 28° W 21:26:20 31° WNW 21:28:57 10° N
Cosmos 1943 Rocket 4.1 21:30:26 14° E 21:30:26 14° E 21:32:36 10° ENE
Cosmos 2154 Rocket 4.1 21:24:21 10° N 21:30:39 62° ENE 21:33:03 38° SE
Cosmos 1812 3.2 21:31:31 36° SW 21:32:46 55° WNW 21:36:35 10° N
Cosmos 2184 Rocket 4.0 21:32:25 10° N 21:38:41 83° W 21:41:19 37° S
Meteor 1-5 Rocket 4.5 21:34:32 10° NNW 21:39:51 57° W 21:42:00 34° SSW
NOSS 3-4 (A) 3.9 21:36:26 10° NW 21:43:23 76° NE 21:47:02 34° SE
NOSS 3-4 (C) 3.9 21:36:32 10° NW 21:43:29 76° NE 21:47:08 34° SE
ATLAS 5 CENTAUR R/B 3.6 21:39:45 10° WNW 21:44:48 31° WSW 21:47:13 24° SSW
Cosmos 2074 Rocket 4.1 21:40:21 10° NNW 21:46:38 71° W 21:49:23 35° S
Cosmos 1666 3.5 21:48:21 10° NNW 21:51:53 41° W 21:52:11 40° WSW
NOSS 3-3 (C) 4.5 21:46:45 10° WSW 21:52:31 58° NW 21:59:08 10° NE
Cosmos 1933 Rocket 4.4 21:48:41 10° NNW 21:52:46 41° W 21:53:49 35° SW
Cosmos 1833 Rocket 3.1 21:48:35 10° NW 21:54:05 53° WSW 21:55:42 40° SSW
Nadezhda 1 Rocket 3.9 21:51:52 41° S 21:54:17 83° E 22:00:34 10° N
Meteor 2-12 Rocket 4.4 21:50:54 10° NNW 21:57:00 80° W 21:59:02 44° S
ATLAS 2AS CENTAUR R/B 3.1 21:49:39 10° NW 21:57:02 59° NE 22:00:31 30° ESE
Cosmos 1743 3.5 21:53:32 10° N 21:56:52 41° ENE 21:56:52 41° ENE
BREEZE-M DEB (TANK) 4.3 21:57:47 10° WNW 21:57:58 12° WNW 21:57:58 12° WNW
USA 215 4.0 21:55:02 10° E 22:01:11 50° NNE 22:07:27 10° NW
BREEZE-M DEB (TANK) 4.4 21:55:30 10° W 22:02:31 40° NNW 22:04:40 15° NE
Cosmos 2297 4.3 22:03:58 37° ESE 22:03:58 37° ESE 22:09:05 10° NE
USA 305 2.8 22:00:23 10° WNW 22:04:41 88° NNE 22:04:41 88° NNE
Cosmos 1610 Rocket 4.5 22:02:34 10° NNW 22:08:43 74° W 22:10:38 46° SSW
Cosmos 158 Rocket 4.0 22:10:09 10° NNW 22:14:56 57° WSW 22:15:27 54° SW
Cosmos 1733 Rocket 3.5 22:11:57 10° N 22:16:02 49° ENE 22:16:02 49° ENE
SJ 16-02 2.2 22:15:15 34° WSW 22:16:40 46° WNW 22:20:58 10° N
Cosmos 2228 Rocket 3.7 22:17:34 43° WSW 22:18:22 49° WNW 22:22:43 10° N
Meteor 1-27 Rocket 3.9 22:18:38 42° SSW 22:20:35 70° WNW 22:26:31 10° N
Cosmos 1680 Rocket 3.4 22:15:19 10° NNW 22:20:41 87° ENE 22:21:27 67° SSE
Cosmos 2341 Rocket 4.0 22:15:03 10° N 22:21:29 77° E 22:23:08 52° SSE
Cosmos 2366 rocket 4.4 22:16:38 10° N 22:22:39 51° ENE 22:24:07 42° ESE
USA 306 3.2 22:19:31 10° WNW 22:23:05 58° W 22:23:05 58° W
Cosmos 1937 Rocket 3.9 22:24:06 46° E 22:24:06 46° E 22:28:46 10° NNE
COSMOS 2406 4.3 22:19:41 10° NW 22:24:35 31° WSW 22:25:47 28° SW
Cosmos 1818 4.4 22:20:27 10° NNW 22:25:44 45° NE 22:27:40 33° E
Cosmos 2082 Rocket 2.4 22:22:01 10° NW 22:27:30 55° WSW 22:28:19 50° SW
CZ-4C R/B 3.8 22:27:24 10° NW 22:34:11 39° WSW 22:36:28 33° SSW
Gbstr 26 Del rocket 4.4 22:27:40 10° WNW 22:35:00 64° NNE 22:40:01 16° E
ERBS 4.5 22:33:51 10° NNW 22:36:33 22° NNE 22:37:05 21° NE
Cosmos 2218 Rocket 4.0 22:34:26 10° N 22:40:43 71° E 22:42:06 54° SE
Meteor 1-19 Rocket 4.1 22:40:49 61° ESE 22:41:10 62° E 22:46:29 10° NNE
Terra 3.8 22:41:15 17° WSW 22:42:21 18° W 22:45:34 10° NW
Okean 1 3.8 22:46:34 58° NNE 22:46:34 58° NNE 22:49:51 10° N
USA 307 4.1 22:44:55 10° WNW 22:47:31 33° W 22:47:31 33° W
Cosmos 1340 Rocket 3.9 22:46:19 10° NNW 22:49:40 39° WNW 22:49:40 39° WNW
Cosmos 2278 Rocket 3.8 22:47:49 10° WSW 22:52:46 30° NW 22:57:44 10° N
Spot 4 4.0 22:53:27 59° WSW 22:53:33 59° W 22:58:23 10° NNW
Cosmos 1862 Rocket 3.7 22:57:00 71° N 22:57:00 71° N 23:00:54 10° N
Cosmos 1898 Rocket 3.7 22:57:39 57° WSW 22:58:33 68° WNW 23:03:52 10° NNE
Cosmos 2369 Rocket 2.7 23:03:27 43° ESE 23:03:27 43° ESE 23:08:34 10° NE
COBE Rocket 3.8 23:07:04 81° SE 23:07:17 84° ENE 23:12:26 10° N
RESURS DK-1 4.1 23:05:35 10° N 23:09:07 26° NE 23:09:53 24° ENE
Meteor 2-9 Rocket 4.2 23:04:07 10° NNW 23:09:55 71° W 23:10:35 64° SW
SL-8 Rocket 4.2 23:04:05 10° NNW 23:10:20 62° W 23:11:34 52° SW
Cosmos 1943 Rocket 2.0 23:11:55 71° SSW 23:12:33 89° WNW 23:18:12 10° NNE
Cosmos 1975 3.5 23:09:05 10° NNW 23:12:12 52° NNW 23:12:12 52° NNW
Cosmos 2084 Rocket 3.8 23:09:41 10° NW 23:13:20 63° NNW 23:13:20 63° NNW
ALOS 2 3.0 23:16:05 54° WNW 23:16:05 54° WNW 23:19:55 10° NNW
SL-08 R/B 4.4 23:12:13 10° N 23:18:26 78° E 23:19:37 60° SSE
DNEPR-1 R/B 4.0 23:19:56 72° SW 23:20:33 88° WNW 23:25:35 10° NE
Cosmos 44 3.7 23:15:48 10° NW 23:20:48 57° WSW 23:20:48 57° WSW
Meteor 2-4 Rocket 3.6 23:20:31 70° SSE 23:21:09 79° E 23:26:50 10° NNE
Okean 1-7 3.4 23:30:15 59° NE 23:30:15 59° NE 23:33:51 10° NNE
Cosmos 372 Rocket 3.8 23:30:36 82° WSW 23:30:45 84° WNW 23:35:52 10° NNE
ATLAS CENTAUR R/B 3.8 23:33:01 12° ENE 23:33:01 12° ENE 23:33:24 10° ENE
Cosmos 1125 Rocket 4.3 23:35:51 38° E 23:35:51 38° E 23:40:32 10° NE
SeaSat 1 2.4 23:33:25 10° NNE 23:38:19 75° ESE 23:38:19 75° ESE
Cosmos 1656 Rocket 3.9 23:39:04 52° ESE 23:39:04 52° ESE 23:44:26 10° NE
Cosmos 494 Rocket 4.5 23:34:10 10° NNW 23:39:16 52° ENE 23:40:13 46° E
Cosmos 2242 Rocket 3.7 23:40:22 70° NNW 23:40:22 70° NNW 23:44:24 10° N
USA 215 3.1 23:42:20 52° SSE 23:44:02 73° SW 23:50:36 10° NW
Cosmos 1833 4.4 23:40:23 10° NNW 23:46:08 67° ENE 23:47:33 50° ESE
ATLAS 2AS CENTAUR R/B 3.4 23:41:09 10° NW 23:47:39 37° WSW 23:47:56 36° WSW
CZ-2D R/B 4.1 23:49:07 10° NE 23:52:28 16° E 23:53:55 15° ESE
